Location: Recife
(8.0585°S, 34.8848°W)
Time: 10:05:34
(UTC-03:00)

Altair - Pass Details

Date: 16 April 2026
Orbit: 1501 x 1682 km, 47.2° (Epoch: 20 May)

Event Time Altitude Azimuth Distance (km) Brightness Sun altitude
Rises 07:27:20 0° 209° (SSW) 4,841 9.7 29.4°
Reaches altitude 10° 07:30:41 10° 202° (SSW) 3,876 9.4 30.2°
Maximum altitude 07:40:01 44° 133° (SE) 2,195 9.1 32.4°
Drops below altitude 10° 07:49:27 10° 64° (ENE) 3,937 11.0 34.7°
Sets 07:52:50 0° 58° (ENE) 4,923 11.1 35.4°
